Location: Copper Breaks State Park
(34.1132°N, 99.7492°W)
Time: 07:04:50
(UTC-05:00)

Amateur Radio Satellites - All Passes

Search period start: 01 October 2016 06:34
Search period end: 02 October 2016 06:34
Location: Copper Breaks State Park, 34.1132°N, 99.7492°W

Satellite Date Start Highest point End Downlink Frequencies (MHz)
Time Altitude Azimuth
AIST 1 01 Oct 06:35:48 06:39:30 26° 282° (WNW) 06:43:12
CUSAT 1 01 Oct 06:38:52 06:46:09 66° 79° (ENE) 06:51:54 437.405
BRITE-PL 01 Oct 06:44:44 06:49:00 38° 97° (E) 06:52:59 437.365/2234.400
HORYU 2 01 Oct 06:47:35 06:52:04 79° 102° (ESE) 06:56:32 437.375
RS-15 01 Oct 06:47:39 06:59:34 58° 250° (WSW) 07:11:07 29.354- 29.394
NOAA 15 01 Oct 06:58:02 07:02:16 24° 96° (E) 07:06:29 137.62
NOAA 18 01 Oct 06:59:30 07:02:37 15° 94° (E) 07:05:43 137.9125
DANDE 01 Oct 07:01:27 07:09:25 47° 75° (ENE) 07:16:23 436.750
CUBESAT XI-V 01 Oct 07:04:46 07:08:18 21° 265° (W) 07:11:52 437.345
LilacSat-2 01 Oct 07:18:08 07:21:30 29° 97° (E) 07:24:53 437.200
O/OREOS (USA 219) 01 Oct 07:18:27 07:22:58 72° 108° (ESE) 07:27:32 437.305
CUTE-I 01 Oct 07:25:52 07:30:50 38° 99° (E) 07:35:46 437.470
Cubesat XI-IV 01 Oct 07:26:55 07:31:53 38° 99° (E) 07:36:51 437.490
AO-85 01 Oct 07:30:50 07:33:32 18° 251° (WSW) 07:36:09 145.980
AO-7 01 Oct 07:41:49 07:45:52 15° 307° (NW) 07:49:56 29.400- 29.500
GOMX 1 01 Oct 07:52:58 07:57:15 86° 285° (WNW) 08:01:23 467.674
DOVE 4 01 Oct 07:55:37 07:59:26 35° 98° (E) 08:03:16 437.250
STRAND 1 01 Oct 07:57:39 08:02:38 58° 74° (ENE) 08:07:39 437.568
GONETS M04 01 Oct 08:10:28 08:17:29 27° 84° (E) 08:24:30
CUSAT 1 01 Oct 08:22:51 08:27:01 17° 280° (W) 08:30:43 437.405
BRITE-PL 01 Oct 08:24:22 08:27:05 16° 294° (WNW) 08:29:41 437.365/2234.400
NOAA 15 01 Oct 08:37:18 08:42:03 35° 290° (WNW) 08:46:46 137.62
NOAA 18 01 Oct 08:38:12 08:43:34 57° 287° (WNW) 08:48:55 137.9125
HO-68 01 Oct 08:39:25 08:45:27 29° 97° (E) 08:51:26 435.675
CINEMA 3 01 Oct 08:40:17 08:43:56 28° 97° (E) 08:47:41 145.822/145.860
PHONESAT 2.4 01 Oct 08:43:07 08:45:16 19° 145° (SE) 08:47:26 2401.200-2431.200
DANDE 01 Oct 08:44:42 08:51:49 33° 274° (W) 08:58:09 436.750
COMPASS 1 01 Oct 08:50:18 08:50:55 10° 92° (E) 08:51:33 437.405
LilacSat-2 01 Oct 08:53:13 08:55:32 16° 291° (WNW) 08:57:51 437.200
CUTE-I 01 Oct 09:06:27 09:10:36 23° 293° (WNW) 09:14:44 437.470
Cubesat XI-IV 01 Oct 09:07:33 09:11:41 23° 293° (WNW) 09:15:49 437.490
Cosmos 2499 01 Oct 09:13:09 09:20:09 60° 92° (E) 09:27:04 435.465 / 435.565
BEESAT 3 01 Oct 09:15:15 09:17:54 17° 52° (NE) 09:20:33 437.485
CUBEBUG 2 01 Oct 09:22:37 09:26:03 22° 96° (E) 09:29:33 437.445
SEEDS 01 Oct 09:22:58 09:27:02 43° 99° (E) 09:31:04 437.485
CUTE 1.7 + AOD 2 01 Oct 09:28:26 09:32:45 78° 102° (ESE) 09:37:01 437.475
CANX-2 01 Oct 09:30:28 09:34:48 84° 280° (W) 09:39:05 2200.000
UWE-3 01 Oct 09:32:58 09:36:05 19° 95° (E) 09:39:16 435.000/436.395/437.385
DOVE 4 01 Oct 09:34:36 09:36:49 14° 292° (WNW) 09:39:02 437.250
AAUSAT CUBESAT 2 01 Oct 09:34:46 09:38:27 29° 97° (E) 09:42:05 437.432
STRAND 1 01 Oct 09:39:49 09:42:07 13° 268° (W) 09:44:25 437.568
Oscar 11 01 Oct 09:45:07 09:47:31 14° 93° (E) 09:49:55 145.826/435.025
ZACube-1 01 Oct 09:53:35 09:56:50 20° 95° (E) 10:00:07 437.345
PRISM 01 Oct 09:58:46 10:02:55 74° 259° (W) 10:07:06 437.425
UNISAT 6 01 Oct 10:01:53 10:03:24 12° 66° (ENE) 10:04:56 437.425
GONETS M04 01 Oct 10:05:05 10:13:40 55° 280° (W) 10:22:21
CINEMA 3 01 Oct 10:17:51 10:20:54 19° 290° (WNW) 10:23:59 145.822/145.860
BEESAT 2 01 Oct 10:17:53 10:21:40 39° 57° (ENE) 10:25:25 435.950
PHONESAT 2.4 01 Oct 10:18:16 10:21:09 57° 339° (NNW) 10:24:01 2401.200-2431.200
COMPASS 1 01 Oct 10:22:38 10:26:43 50° 285° (WNW) 10:30:46 437.405
DELFI C3 01 Oct 10:23:17 10:25:23 14° 93° (E) 10:27:28 145.870
HO-68 01 Oct 10:26:31 10:33:14 46° 292° (WNW) 10:39:57 435.675
ANTELSAT 01 Oct 10:34:43 10:38:22 29° 72° (ENE) 10:42:02 437.575/2403.000
FUNcube-1 01 Oct 10:44:28 10:48:52 76° 101° (E) 10:53:21 145.935
BEESAT 3 01 Oct 10:52:01 10:55:39 34° 246° (WSW) 10:59:14 437.485
TIGRISAT 01 Oct 10:53:40 10:57:44 45° 74° (ENE) 11:01:48 435.000
CUBEBUG 2 01 Oct 10:58:56 11:02:35 26° 288° (WNW) 11:06:19 437.445
SEEDS 01 Oct 11:00:17 11:02:19 13° 293° (WNW) 11:04:19 437.485
UWE-3 01 Oct 11:08:40 11:12:32 31° 288° (WNW) 11:16:29 435.000/436.395/437.385
Cosmos 2499 01 Oct 11:08:56 11:13:42 19° 289° (WNW) 11:18:27 435.465 / 435.565
AAUSAT CUBESAT 2 01 Oct 11:10:49 11:13:40 18° 291° (WNW) 11:16:30 437.432
HUMSAT D 01 Oct 11:15:25 11:19:14 31° 98° (E) 11:23:03 437.325/437.525
Oscar 11 01 Oct 11:19:42 11:23:46 39° 286° (WNW) 11:27:48 145.826/435.025
QB50P2 01 Oct 11:22:34 11:24:23 13° 67° (ENE) 11:26:12 145.880/145.840
POLYITAN 1 01 Oct 11:24:46 11:26:34 13° 67° (ENE) 11:28:21 437.675
ZACube-1 01 Oct 11:29:16 11:33:05 29° 288° (WNW) 11:36:57 437.345
UNISAT 6 01 Oct 11:35:33 11:39:40 48° 260° (W) 11:43:48 437.425
AIST 2 01 Oct 11:38:17 11:39:08 10° 47° (NE) 11:40:00 435.215
PHONESAT 2.4 01 Oct 11:55:08 11:57:33 23° 355° (N) 11:59:59 2401.200-2431.200
DUCHIFAT 1 01 Oct 11:55:09 11:58:33 25° 71° (ENE) 12:01:57 145.980
DELFI C3 01 Oct 11:56:39 12:00:17 33° 287° (WNW) 12:03:53 145.870
BEESAT 2 01 Oct 11:57:03 11:59:06 14° 251° (WSW) 12:01:09 435.950
QB50P1 01 Oct 12:01:16 12:05:03 34° 73° (ENE) 12:08:51 145.935-145.965
ANTELSAT 01 Oct 12:12:06 12:15:04 18° 265° (W) 12:18:04 437.575/2403.000
POPSAT HIP 1 01 Oct 12:14:53 12:18:56 49° 74° (ENE) 12:22:59 437.405
NANOSAT C BR1 01 Oct 12:28:15 12:32:25 71° 77° (ENE) 12:36:35 145.865
JAS-2 01 Oct 12:28:32 12:34:54 59° 72° (ENE) 12:42:05 435.910
TIGRISAT 01 Oct 12:33:15 12:34:38 11° 267° (W) 12:36:00 435.000
CUBEBUG 1 01 Oct 12:35:35 12:38:53 21° 96° (E) 12:42:10 437.445
VELOX 1 01 Oct 12:41:57 12:45:04 19° 95° (E) 12:48:10 145.980
HUMSAT D 01 Oct 12:51:38 12:54:35 18° 291° (WNW) 12:57:33 437.325/437.525
QB50P2 01 Oct 12:55:45 12:59:45 44° 261° (W) 13:03:47 145.880/145.840
POLYITAN 1 01 Oct 12:57:55 13:01:56 44° 261° (W) 13:05:57 437.675
SPROUT 01 Oct 12:58:11 13:00:42 15° 94° (E) 13:03:11 437.525
ESTCUBE 1 01 Oct 12:58:36 13:03:07 69° 101° (E) 13:07:36 437.505/2401.250
AIST 2 01 Oct 13:13:53 13:18:05 73° 243° (WSW) 13:22:15 435.215
BUGSAT 1 01 Oct 13:15:40 13:19:46 86° 258° (WSW) 13:23:51 437.445
UKube-1 01 Oct 13:19:42 13:23:08 23° 96° (E) 13:26:33 .
Gurwin Techsat 1B 01 Oct 13:27:51 13:29:00 11° 62° (ENE) 13:30:09 435.225
DUCHIFAT 1 01 Oct 13:30:58 13:34:09 21° 264° (W) 13:37:20 145.980
PHONESAT 2.4 01 Oct 13:31:30 13:34:07 28° 12° (NNE) 13:36:45 2401.200-2431.200
M-CUBED/EXP-1 PRIME 01 Oct 13:33:08 13:36:00 28° 103° (ESE) 13:38:55 437.505
Oscar 19 01 Oct 13:33:41 13:38:03 28° 69° (ENE) 13:42:25 437.125/150
AISAT 01 Oct 13:33:59 13:38:23 86° 105° (ESE) 13:42:45 437.250
QB50P1 01 Oct 13:38:24 13:40:53 15° 266° (W) 13:43:22 145.935-145.965
PCSat 01 Oct 13:43:21 13:48:34 47° 60° (ENE) 13:53:46 145.827
50 SAT 01 Oct 13:48:26 13:52:01 56° 284° (WNW) 13:55:34 437.505
POPSAT HIP 1 01 Oct 13:54:17 13:54:56 10° 268° (W) 13:55:35 437.405
DX 1 01 Oct 13:55:25 13:59:46 87° 109° (ESE) 14:04:05 434.975-435.025
Cosmos 2491 01 Oct 13:56:37 14:01:40 17° 80° (E) 14:06:44 435.465 / 435.565
YUBILEINY 01 Oct 14:00:54 14:08:38 34° 75° (ENE) 14:16:18 435.215
TISAT 1 01 Oct 14:03:57 14:06:27 15° 94° (E) 14:08:57 437.305
CUBEBUG 1 01 Oct 14:11:30 14:15:06 26° 289° (WNW) 14:18:40 437.445
JAS-2 01 Oct 14:15:41 14:20:26 21° 270° (W) 14:25:35 435.910
VELOX 1 01 Oct 14:17:40 14:21:31 30° 289° (WNW) 14:25:21 145.980
SO-50 01 Oct 14:18:51 14:23:02 30° 112° (ESE) 14:27:12 436.795
Cosmos 2504 01 Oct 14:19:03 14:22:46 14° 69° (ENE) 14:26:36 435.465 / 435.565
AUBIESAT-1 01 Oct 14:26:13 14:29:28 55° 289° (WNW) 14:32:48 437.475
SPROUT 01 Oct 14:32:49 14:36:42 35° 287° (WNW) 14:40:34 437.525
ITAMSAT 1 01 Oct 14:37:45 14:40:18 14° 64° (ENE) 14:42:52 435.822/435.867
AO-7 01 Oct 14:51:24 14:57:03 21° 57° (ENE) 15:02:40 29.400- 29.500
SWISSCUBE 01 Oct 14:55:17 14:57:20 13° 93° (E) 14:59:24 437.505
UKube-1 01 Oct 14:55:35 14:59:04 24° 290° (WNW) 15:02:31 .
Gurwin Techsat 1B 01 Oct 15:02:52 15:08:11 82° 257° (WSW) 15:13:31 435.225
BEESAT 01 Oct 15:07:06 15:09:56 16° 94° (E) 15:12:45 436.000
PHONESAT 2.4 01 Oct 15:07:26 15:10:21 65° 207° (SSW) 15:13:16 2401.200-2431.200
M-CUBED/EXP-1 PRIME 01 Oct 15:09:09 15:10:17 11° 296° (WNW) 15:11:26 437.505
Oscar 19 01 Oct 15:12:46 15:17:14 29° 263° (W) 15:21:44 437.125/150
PCSat 01 Oct 15:27:49 15:31:32 19° 255° (WSW) 15:35:16 145.827
TISAT 1 01 Oct 15:38:23 15:42:08 33° 288° (WNW) 15:45:54 437.305
Cosmos 2491 01 Oct 15:48:32 15:57:19 82° 276° (W) 16:06:12 435.465 / 435.565
YUBILEINY 01 Oct 15:57:23 16:05:26 44° 272° (W) 16:13:29 435.215
SO-50 01 Oct 15:59:19 16:03:27 28° 307° (NW) 16:07:34 436.795
Cosmos 2504 01 Oct 16:09:16 16:16:55 88° 264° (W) 16:25:08 435.465 / 435.565
ITAMSAT 1 01 Oct 16:14:06 16:19:12 62° 259° (W) 16:24:20 435.822/435.867
ITUPSAT 1 01 Oct 16:19:48 16:24:38 82° 284° (WNW) 16:29:27 437.325
SWISSCUBE 01 Oct 16:30:42 16:35:23 54° 287° (WNW) 16:40:03 437.505
AO-7 01 Oct 16:40:32 16:48:52 80° 254° (WSW) 16:57:13 29.400- 29.500
BEESAT 01 Oct 16:43:19 16:47:52 44° 288° (WNW) 16:52:24 436.000
AIST 1 01 Oct 16:45:56 16:50:04 48° 81° (E) 16:54:10
KKS-1 01 Oct 17:27:35 17:31:55 54° 101° (E) 17:36:15 437.445
O/OREOS (USA 219) 01 Oct 17:32:12 17:36:48 74° 70° (ENE) 17:41:21 437.305
MOZHAYETS 4 01 Oct 17:32:29 17:37:08 76° 284° (WNW) 17:41:46
HORYU 2 01 Oct 17:41:51 17:46:01 44° 73° (ENE) 17:50:13 437.375
STARS 01 Oct 17:49:44 17:53:54 43° 100° (E) 17:58:04 437.465
BRITE-PL 01 Oct 17:50:21 17:55:29 36° 72° (ENE) 18:00:31 437.365/2234.400
Cosmos 2491 01 Oct 17:51:38 17:55:30 13° 295° (WNW) 17:59:24 435.465 / 435.565
CUSAT 1 01 Oct 17:58:02 17:59:26 11° 77° (ENE) 18:00:53 437.405
Cosmos 2504 01 Oct 18:06:27 18:09:16 12° 279° (W) 18:12:09 435.465 / 435.565
NOAA 15 01 Oct 18:14:26 18:18:51 27° 68° (ENE) 18:23:17 137.62
NOAA 18 01 Oct 18:21:53 18:25:56 22° 66° (ENE) 18:29:59 137.9125
ISS 01 Oct 18:37:39 18:40:24 25° 130° (SE) 18:43:08 145.825
AO-7 01 Oct 18:39:54 18:42:36 12° 269° (W) 18:45:19 29.400- 29.500
CUTE-I 01 Oct 18:44:01 18:48:58 43° 72° (ENE) 18:53:58 437.470
Cubesat XI-IV 01 Oct 18:45:13 18:50:12 43° 72° (ENE) 18:55:14 437.490
RS-15 01 Oct 18:54:37 19:04:21 34° 104° (ESE) 19:14:30 29.354- 29.394
GOMX 1 01 Oct 18:55:58 19:01:18 68° 76° (ENE) 19:06:22 467.674
DOVE 4 01 Oct 18:57:07 19:01:17 28° 72° (ENE) 19:05:15 437.250
CUBESAT XI-V 01 Oct 19:03:44 19:08:22 62° 284° (WNW) 19:12:56 437.345
KKS-1 01 Oct 19:06:25 19:07:58 12° 295° (WNW) 19:09:32 437.445
HO-68 01 Oct 19:06:42 19:10:25 15° 58° (ENE) 19:14:08 435.675
Cosmos 2499 01 Oct 19:09:04 19:13:44 16° 70° (ENE) 19:18:32 435.465 / 435.565
HORYU 2 01 Oct 19:20:40 19:22:45 13° 267° (W) 19:24:50 437.375
STARS 01 Oct 19:27:35 19:29:50 14° 294° (WNW) 19:32:06 437.465
BRITE-PL 01 Oct 19:29:10 19:33:53 27° 265° (W) 19:38:32 437.365/2234.400
LilacSat-2 01 Oct 19:29:59 19:33:37 50° 260° (W) 19:37:18 437.200
CUSAT 1 01 Oct 19:33:28 19:39:46 79° 96° (E) 19:47:29 437.405
JUGNU 01 Oct 19:35:36 19:39:21 17° 171° (S) 19:43:06 437.505
CINEMA 3 01 Oct 19:39:15 19:42:08 17° 70° (ENE) 19:44:58 145.822/145.860
NOAA 15 01 Oct 19:53:49 19:58:28 31° 263° (W) 20:03:09 137.62
AO-85 01 Oct 19:59:34 20:04:04 29° 112° (ESE) 20:08:23 145.980
NOAA 18 01 Oct 20:01:06 20:06:15 42° 260° (W) 20:11:25 137.9125
DANDE 01 Oct 20:04:16 20:09:19 51° 91° (E) 20:15:58 436.750
SEEDS 01 Oct 20:11:45 20:14:42 19° 70° (ENE) 20:17:41 437.485
STRAND 1 01 Oct 20:12:23 20:16:43 27° 96° (E) 20:21:03 437.568
ISS 01 Oct 20:14:07 20:16:49 24° 325° (NW) 20:19:33 145.825
CUTE 1.7 + AOD 2 01 Oct 20:17:26 20:21:12 32° 73° (ENE) 20:25:01 437.475
CANX-2 01 Oct 20:19:22 20:23:20 40° 74° (ENE) 20:27:20 2200.000
CUBEBUG 2 01 Oct 20:19:28 20:20:42 11° 67° (ENE) 20:21:57 437.445
GONETS M04 01 Oct 20:19:53 20:28:37 64° 81° (E) 20:37:13
AAUSAT CUBESAT 2 01 Oct 20:22:55 20:24:47 13° 67° (ENE) 20:26:41 437.432
CUTE-I 01 Oct 20:25:25 20:29:09 19° 266° (W) 20:32:54 437.470
Cubesat XI-IV 01 Oct 20:26:44 20:30:25 19° 266° (W) 20:34:08 437.490
DOVE 4 01 Oct 20:34:45 20:38:51 26° 263° (W) 20:42:49 437.250
GOMX 1 01 Oct 20:37:42 20:39:37 12° 268° (W) 20:41:32 467.674
SRMSAT 01 Oct 20:42:17 20:44:01 11° 165° (SSE) 20:45:46 437.500
HO-68 01 Oct 20:49:58 20:57:08 89° 238° (WSW) 21:04:21 435.675
Cosmos 2499 01 Oct 20:59:40 21:07:29 81° 266° (W) 21:15:54 435.465 / 435.565
RS-15 01 Oct 21:04:35 21:15:59 62° 304° (NW) 21:28:04 29.354- 29.394
COMPASS 1 01 Oct 21:09:04 21:13:11 63° 76° (ENE) 21:17:20 437.405
CINEMA 3 01 Oct 21:15:01 21:19:01 33° 262° (W) 21:22:55 145.822/145.860
CUSAT 1 01 Oct 21:18:30 21:22:49 17° 296° (WNW) 21:27:32 437.405
JUGNU 01 Oct 21:23:28 21:27:42 20° 181° (S) 21:31:55 437.505
FUNcube-1 01 Oct 21:36:38 21:40:20 33° 73° (ENE) 21:44:05 145.935
AO-85 01 Oct 21:39:48 21:44:27 32° 305° (NW) 21:48:51 145.980
PRISM 01 Oct 21:44:53 21:47:50 19° 96° (E) 21:50:46 437.425
SEEDS 01 Oct 21:46:32 21:50:10 28° 263° (W) 21:53:51 437.485
DANDE 01 Oct 21:48:36 21:52:45 20° 295° (WNW) 21:57:38 436.750
STRAND 1 01 Oct 21:51:23 21:55:48 30° 290° (WNW) 22:00:14 437.568
CUBEBUG 2 01 Oct 21:52:51 21:56:54 47° 260° (W) 22:00:55 437.445
CUTE 1.7 + AOD 2 01 Oct 21:54:24 21:57:05 16° 266° (W) 21:59:48 437.475
AAUSAT CUBESAT 2 01 Oct 21:55:54 21:59:51 42° 261° (W) 22:03:50 437.432
CANX-2 01 Oct 21:57:19 21:59:19 13° 267° (W) 22:01:22 2200.000
UWE-3 01 Oct 22:01:30 22:05:36 60° 260° (W) 22:09:42 435.000/436.395/437.385
HUMSAT D 01 Oct 22:04:41 22:06:38 13° 67° (ENE) 22:08:35 437.325/437.525
Oscar 11 01 Oct 22:10:02 22:14:20 85° 258° (WSW) 22:18:41 145.826/435.025
GONETS M04 01 Oct 22:18:15 22:24:35 23° 278° (W) 22:30:55
ZACube-1 01 Oct 22:20:50 22:24:54 58° 260° (W) 22:29:00 437.345
SRMSAT 01 Oct 22:28:31 22:32:28 18° 174° (S) 22:36:25 437.500
DELFI C3 01 Oct 22:37:53 22:41:52 77° 77° (ENE) 22:45:54 145.870
HO-68 01 Oct 22:42:56 22:45:35 12° 269° (W) 22:48:15 435.675
TIGRISAT 01 Oct 22:50:06 22:52:19 13° 93° (E) 22:54:32 435.000
SO-50 01 Oct 22:55:48 22:57:02 11° 45° (NE) 22:58:15 436.795
Cosmos 2499 01 Oct 22:57:21 22:59:29 11° 280° (W) 23:01:38 435.465 / 435.565
JUGNU 01 Oct 23:12:42 23:16:02 15° 191° (SSW) 23:19:21 437.505
FUNcube-1 01 Oct 23:14:21 23:16:40 15° 266° (W) 23:18:59 145.935
PRISM 01 Oct 23:19:38 23:23:05 26° 289° (WNW) 23:26:30 437.425
RS-15 01 Oct 23:23:44 23:31:42 20° 331° (NNW) 23:39:54 29.354- 29.394
CUBEBUG 1 01 Oct 23:29:29 23:31:15 12° 66° (ENE) 23:33:00 437.445
UNISAT 6 01 Oct 23:30:25 23:34:42 43° 99° (E) 23:39:03 437.425
VELOX 1 01 Oct 23:37:24 23:38:51 11° 65° (ENE) 23:40:18 145.980
HUMSAT D 01 Oct 23:38:02 23:41:51 39° 262° (W) 23:45:44 437.325/437.525
JAS-2 01 Oct 23:47:24 23:48:35 10° 86° (E) 23:49:47 435.910
ESTCUBE 1 01 Oct 23:54:18 23:58:31 39° 73° (ENE) 00:02:45 437.505/2401.250
ANTELSAT 02 Oct 00:05:28 00:09:56 72° 284° (WNW) 00:14:30 437.575/2403.000
POPSAT HIP 1 02 Oct 00:05:58 00:06:52 11° 92° (E) 00:07:45 437.405
BEESAT 2 02 Oct 00:07:14 00:09:46 17° 110° (ESE) 00:12:19 435.950
UKube-1 02 Oct 00:12:01 00:14:01 13° 66° (ENE) 00:16:01 .
M-CUBED/EXP-1 PRIME 02 Oct 00:16:04 00:19:18 23° 68° (ENE) 00:22:21 437.505
SRMSAT 02 Oct 00:16:52 00:20:58 19° 184° (S) 00:25:03 437.500
NANOSAT C BR1 02 Oct 00:17:41 00:20:04 15° 94° (E) 00:22:28 145.865
50 SAT 02 Oct 00:21:19 00:24:31 30° 73° (ENE) 00:27:45 437.505
TIGRISAT 02 Oct 00:24:53 00:29:08 45° 286° (WNW) 00:33:29 435.000
AISAT 02 Oct 00:27:22 00:31:38 46° 74° (ENE) 00:35:53 437.250
SO-50 02 Oct 00:33:33 00:38:06 81° 242° (WSW) 00:42:31 436.795
BEESAT 3 02 Oct 00:38:15 00:42:08 86° 294° (WNW) 00:46:05 437.485
QB50P2 02 Oct 00:44:14 00:48:09 36° 99° (E) 00:52:03 145.880/145.840
POLYITAN 1 02 Oct 00:46:22 00:50:18 36° 99° (E) 00:54:13 437.675
DX 1 02 Oct 00:47:01 00:51:11 45° 74° (ENE) 00:55:21 434.975-435.025
BUGSAT 1 02 Oct 01:02:07 01:04:47 17° 95° (E) 01:07:27 437.445
CUBEBUG 1 02 Oct 01:02:45 01:07:02 51° 260° (W) 01:11:20 437.445
AUBIESAT-1 02 Oct 01:08:08 01:12:10 88° 73° (ENE) 01:15:55 437.475
UNISAT 6 02 Oct 01:08:32 01:11:01 15° 292° (WNW) 01:13:33 437.425
VELOX 1 02 Oct 01:10:25 01:14:47 56° 259° (W) 01:19:10 145.980
DUCHIFAT 1 02 Oct 01:17:24 01:21:37 78° 103° (ESE) 01:25:49 145.980
SPROUT 02 Oct 01:21:51 01:26:07 79° 258° (WSW) 01:30:23 437.525
QB50P1 02 Oct 01:24:41 01:28:54 73° 284° (WNW) 01:33:06 145.935-145.965
JAS-2 02 Oct 01:26:55 01:34:45 76° 103° (ESE) 01:41:54 435.910
ESTCUBE 1 02 Oct 01:32:42 01:35:25 16° 266° (W) 01:38:09 437.505/2401.250
POPSAT HIP 1 02 Oct 01:38:47 01:42:51 49° 286° (WNW) 01:46:56 437.405
BEESAT 2 02 Oct 01:43:46 01:47:17 31° 304° (NW) 01:50:52 435.950
UKube-1 02 Oct 01:45:28 01:49:37 46° 260° (W) 01:53:47 .
RS-15 02 Oct 01:46:32 01:51:44 13° 10° (N) 01:56:56 29.354- 29.394
M-CUBED/EXP-1 PRIME 02 Oct 01:50:34 01:53:42 21° 258° (WSW) 01:56:40 437.505
Oscar 19 02 Oct 01:50:38 01:52:45 12° 92° (E) 01:54:51 437.125/150
NANOSAT C BR1 02 Oct 01:52:02 01:55:53 35° 287° (WNW) 01:59:43 145.865
50 SAT 02 Oct 01:56:29 01:58:04 12° 266° (W) 01:59:38 437.505
SWISSCUBE 02 Oct 02:00:17 02:00:42 10° 63° (ENE) 02:01:05 437.505
Cosmos 2491 02 Oct 02:03:59 02:12:17 43° 77° (ENE) 02:20:28 435.465 / 435.565
AISAT 02 Oct 02:06:19 02:08:17 13° 267° (W) 02:10:14 437.250
SRMSAT 02 Oct 02:06:50 02:09:25 13° 194° (SSW) 02:12:00 437.500
BEESAT 02 Oct 02:11:06 02:13:03 12° 64° (ENE) 02:15:00 436.000
QB50P2 02 Oct 02:21:08 02:23:36 15° 292° (WNW) 02:26:04 145.880/145.840
POLYITAN 1 02 Oct 02:23:17 02:25:45 15° 292° (WNW) 02:28:13 437.675
TISAT 1 02 Oct 02:25:32 02:29:42 78° 256° (WSW) 02:33:54 437.305
DX 1 02 Oct 02:25:37 02:27:33 13° 267° (W) 02:29:29 434.975-435.025
BUGSAT 1 02 Oct 02:36:41 02:40:08 28° 288° (WNW) 02:43:38 437.445
ISS 02 Oct 02:44:11 02:47:27 66° 42° (NE) 02:50:43 145.825
YUBILEINY 02 Oct 02:56:43 03:04:55 45° 88° (E) 03:13:03 435.215
Cosmos 2504 02 Oct 02:57:31 02:58:36 10° 80° (E) 02:59:41 435.465 / 435.565
AIST 2 02 Oct 03:07:36 03:11:36 57° 115° (ESE) 03:15:39 435.215
JAS-2 02 Oct 03:13:29 03:18:47 20° 299° (WNW) 03:23:52 435.910
ITUPSAT 1 02 Oct 03:22:35 03:27:20 75° 74° (ENE) 03:32:06 437.325
Gurwin Techsat 1B 02 Oct 03:22:58 03:28:10 54° 100° (E) 03:33:21 435.225
Oscar 19 02 Oct 03:27:20 03:32:25 61° 286° (WNW) 03:37:26 437.125/150
SWISSCUBE 02 Oct 03:33:04 03:37:48 73° 258° (WSW) 03:42:35 437.505
BEESAT 02 Oct 03:45:36 03:50:16 59° 259° (W) 03:54:59 436.000
RS-15 02 Oct 03:59:14 04:10:03 33° 43° (NE) 04:20:38 29.354- 29.394
Cosmos 2491 02 Oct 04:01:06 04:08:51 36° 274° (W) 04:16:34 435.465 / 435.565
PCSat 02 Oct 04:20:48 04:26:12 87° 298° (WNW) 04:31:39 145.827
KKS-1 02 Oct 04:22:05 04:25:59 31° 71° (ENE) 04:29:55 437.445
MOZHAYETS 4 02 Oct 04:30:18 04:34:48 64° 76° (ENE) 04:39:22
ITAMSAT 1 02 Oct 04:30:36 04:35:48 64° 102° (ESE) 04:40:59 435.822/435.867
STARS 02 Oct 04:43:05 04:46:38 24° 70° (ENE) 04:50:09 437.465
Cosmos 2504 02 Oct 04:43:26 04:50:51 88° 98° (E) 04:58:02 435.465 / 435.565
AO-7 02 Oct 04:46:38 04:54:29 45° 101° (E) 05:02:17 29.400- 29.500
AIST 2 02 Oct 04:48:43 04:50:25 12° 312° (NW) 04:52:09 435.215
YUBILEINY 02 Oct 04:54:01 05:01:44 34° 285° (WNW) 05:09:29 435.215
Gurwin Techsat 1B 02 Oct 05:04:24 05:07:38 16° 295° (WNW) 05:10:50 435.225
AIST 1 02 Oct 05:11:11 05:15:09 35° 91° (E) 05:19:08
HORYU 2 02 Oct 05:38:44 05:40:05 11° 93° (E) 05:41:26 437.375
KKS-1 02 Oct 05:59:23 06:02:33 19° 265° (W) 06:05:44 437.445
BRITE-PL 02 Oct 06:02:01 06:03:23 11° 90° (E) 06:04:44 437.365/2234.400
CUBESAT XI-V 02 Oct 06:02:43 06:07:25 81° 76° (ENE) 06:12:09 437.345
O/OREOS (USA 219) 02 Oct 06:03:57 06:06:07 13° 98° (E) 06:08:17 437.305
PCSat 02 Oct 06:08:28 06:10:22 12° 313° (NW) 06:12:16 145.827
ITAMSAT 1 02 Oct 06:12:08 06:14:40 14° 296° (WNW) 06:17:10 435.822/435.867
CUSAT 1 02 Oct 06:13:24 06:20:18 46° 75° (ENE) 06:25:48 437.405
AO-85 02 Oct 06:14:54 06:18:57 86° 61° (ENE) 06:22:48 145.980
STARS 02 Oct 06:19:20 06:22:51 24° 263° (W) 06:26:24 437.465
